ASTRA 1P (SES-24)

Last updated on Mon Oct 20 2025 00:02:51 GMT+0000 (Coordinated Universal Time)

1 60086U 24115A 25292.19971691 .00000117 00000+0 00000+0 0 9993 2 60086 0.0689 332.4816 0004207 279.5283 227.0370 1.00270397 4780
UTC large
Height (km)
Speed (km/s)
/
Latitude / Longitude
Inclination (degrees)
Orbital Period (minutes)
Azimuth
Elevation
Range (km)
Doppler Factor

Next 0 passes for location: London (51.5072 / 0.1276)

Sorry there are no passes over London.